K7EK Weather Reports


time (UTC)temp
C
wind
direction
speed
KPH
gust
KPH
rain 1hr
cm
rain 24hr
cm
rain mn
cm
humidity
%
barometer
mb
20260509064550 15 155 3.2 14.5 0.00 0.00 0.00 64 1008.5
20260509063056 15 178 0.0 8.0 0.00 0.00 0.00 63 1008.6
20260509061604 15 174 0.0 12.9 0.00 0.00 0.00 62 1008.7
20260509060051 15 151 1.6 12.9 0.00 0.00 0.00 61 1008.8
20260509054557 15 186 0.0 14.5 0.00 0.00 0.00 61 1008.9
20260509053059 15 201 0.0 6.4 0.00 0.00 0.00 61 1008.9
20260509051554 15 0 0.0 4.8 0.00 0.00 0.00 60 1008.8
20260509050051 15 171 0.0 4.8 0.00 0.00 0.00 60 1008.7
20260509044557 15 156 0.0 1.6 0.00 0.00 0.00 61 1008.8
20260509043100 15 0 0.0 3.2 0.00 0.00 0.00 61 1008.9
20260509041552 15 151 0.0 1.6 0.00 0.00 0.00 62 1008.9
20260509040050 15 0 0.0 1.6 0.00 0.00 0.00 64 1008.9
20260509034550 15 0 0.0 0.0 0.00 0.00 0.00 64 1009.1
20260509033051 15 0 0.0 0.0 0.00 0.00 0.00 64 1009.1
20260509031555 15 0 0.0 0.0 0.00 0.00 0.00 64 1009.2
20260509030056 15 0 0.0 0.0 0.00 0.00 0.00 64 1009.3
20260509024551 15 0 0.0 0.0 0.00 0.00 0.00 65 1009.4
20260509023050 15 0 0.0 0.0 0.00 0.00 0.00 65 1009.6
20260509021548 15 0 0.0 0.0 0.00 0.00 0.00 64 1009.8
20260509020043 15 0 0.0 0.0 0.00 0.00 0.00 63 1009.7
20260509014551 15 0 0.0 0.0 0.00 0.00 0.00 60 1009.5
20260509013047 15 0 0.0 0.0 0.00 0.00 0.00 61 1009.7
20260509011550 15 0 0.0 0.0 0.00 0.00 0.00 60 1009.7
20260509010046 16 0 0.0 0.0 0.00 0.00 0.00 57 1009.7
20260509004551 17 0 0.0 3.2 0.00 0.00 0.00 54 1009.7
20260509003051 18 159 0.0 1.6 0.00 0.00 0.00 51 1009.9
20260509001548 19 172 0.0 6.4 0.00 0.00 0.00 49 1009.8
20260509000049 20 212 0.0 12.9 0.00 0.00 0.00 47 1009.9
20260508234553 20 161 1.6 12.9 0.00 0.00 0.00 45 1009.8
20260508233050 21 194 0.0 11.3 0.00 0.00 0.00 45 1009.9
20260508231621 21 135 1.6 17.7 0.00 0.00 0.00 45 1010.2
20260508230059 21 216 6.4 14.5 0.00 0.00 0.00 42 1010.5
20260508224550 21 150 1.6 14.5 0.00 0.00 0.00 44 1010.5
20260508223048 21 245 6.4 19.3 0.00 0.00 0.00 42 1010.5
20260508221548 22 130 4.8 14.5 0.00 0.00 0.00 43 1010.2
20260508220051 21 151 4.8 14.5 0.00 0.00 0.00 43 1010.1
20260508214624 21 221 4.8 17.7 0.00 0.00 0.00 44 1010.2
20260508213052 21 155 3.2 20.9 0.00 0.00 0.00 46 1010.2
20260508211550 21 139 8.0 16.1 0.00 0.00 0.00 44 1010.2
20260508210054 21 184 4.8 19.3 0.00 0.00 0.00 44 1010.4
20260508204550 21 232 8.0 17.7 0.00 0.00 0.00 46 1010.7
20260508203106 21 254 8.0 20.9 0.00 0.00 0.00 43 1010.8
20260508201549 21 240 4.8 19.3 0.00 0.00 0.00 42 1011.1
20260508200049 21 159 6.4 20.9 0.00 0.00 0.00 43 1011.3
20260508194555 21 245 3.2 12.9 0.00 0.00 0.00 47 1011.6
20260508193105 21 349 8.0 19.3 0.00 0.00 0.00 42 1011.9
20260508191548 21 169 11.3 22.5 0.00 0.00 0.00 43 1012.1
20260508190049 21 259 6.4 20.9 0.00 0.00 0.00 47 1012.3
20260508184553 21 117 4.8 19.3 0.00 0.00 0.00 44 1012.3
20260508183102 21 174 6.4 19.3 0.00 0.00 0.00 45 1012.2
20260508181555 21 140 3.2 14.5 0.00 0.00 0.00 45 1012.1
20260508180058 21 269 8.0 19.3 0.00 0.00 0.00 44 1012.4
20260508174552 20 173 8.0 17.7 0.00 0.00 0.00 44 1012.8
20260508173048 20 255 6.4 17.7 0.00 0.00 0.00 41 1013.0
20260508171551 20 226 3.2 19.3 0.00 0.00 0.00 51 1013.3
20260508170052 20 157 6.4 22.5 0.00 0.00 0.00 44 1013.8
20260508164600 20 155 8.0 20.9 0.00 0.00 0.00 45 1014.2
20260508163051 20 229 6.4 16.1 0.00 0.00 0.00 46 1014.3
20260508161547 20 146 3.2 14.5 0.00 0.00 0.00 47 1014.6
20260508160052 19 185 4.8 16.1 0.00 0.00 0.00 49 1015.0
20260508154554 18 208 4.8 12.9 0.00 0.00 0.00 46 1015.1
20260508153051 18 190 3.2 11.3 0.00 0.00 0.00 50 1015.3
20260508151552 18 198 6.4 16.1 0.00 0.00 0.00 49 1015.4
20260508150104 17 178 6.4 14.5 0.00 0.00 0.00 51 1015.4
20260508144546 17 206 4.8 12.9 0.00 0.00 0.00 53 1015.6
20260508143059 16 211 8.0 19.3 0.00 0.00 0.00 55 1015.8
20260508141550 16 274 3.2 9.7 0.00 0.00 0.00 57 1015.8
20260508140106 15 202 4.8 11.3 0.00 0.00 0.00 60 1015.8
20260508134558 14 187 3.2 11.3 0.00 0.00 0.00 59 1015.8
20260508133054 14 254 4.8 14.5 0.00 0.00 0.00 59 1015.8
20260508131551 13 173 1.6 8.0 0.00 0.00 0.00 60 1015.6
20260508130049 13 144 1.6 14.5 0.00 0.00 0.00 61 1015.6
20260508124548 12 169 0.0 6.4 0.00 0.00 0.00 65 1015.6
20260508123051 11 0 3.2 9.7 0.00 0.00 0.00 66 1015.7
20260508121551 10 0 0.0 1.6 0.00 0.00 0.00 73 1015.8
20260508120055 8 0 0.0 1.6 0.00 0.00 0.00 78 1015.6
20260508114604 7 0 0.0 1.6 0.00 0.00 0.00 83 1015.6
20260508113055 5 0 0.0 1.6 0.00 0.00 0.00 87 1015.4
20260508111601 5 0 0.0 0.0 0.00 0.00 0.00 89 1015.3
20260508110049 4 0 0.0 0.0 0.00 0.00 0.00 90 1015.0
20260508104559 3 0 0.0 0.0 0.00 0.00 0.00 91 1014.9
20260508103049 3 0 0.0 0.0 0.00 0.00 0.00 91 1014.8
20260508101554 3 0 0.0 0.0 0.00 0.00 0.00 90 1014.7
20260508100047 3 0 0.0 0.0 0.00 0.00 0.00 90 1014.8
20260508094548 3 0 0.0 0.0 0.00 0.00 0.00 89 1014.8
20260508093050 4 0 0.0 0.0 0.00 0.00 0.00 89 1014.8
20260508091602 4 0 0.0 0.0 0.00 0.00 0.00 88 1014.9
20260508090056 5 0 0.0 0.0 0.00 0.00 0.00 88 1014.9
20260508084547 5 0 0.0 0.0 0.00 0.00 0.00 87 1014.9
20260508083055 5 0 0.0 1.6 0.00 0.00 0.00 88 1015.0
20260508081550 4 0 0.0 0.0 0.00 0.00 0.00 88 1015.0
20260508080049 4 0 0.0 0.0 0.00 0.00 0.00 89 1015.0
20260508074545 4 0 0.0 0.0 0.00 0.00 0.00 89 1015.0
20260508073050 4 0 0.0 0.0 0.00 0.00 0.00 88 1015.0
20260508071549 5 0 0.0 0.0 0.00 0.00 0.00 88 1015.0
20260508070051 5 0 0.0 0.0 0.00 0.00 0.00 88 1015.0